DW5536 Weather Reports


time (UTC)temp
C
wind
direction
speed
KPH
gust
KPH
rain 1hr
cm
rain 24hr
cm
rain mn
cm
humidity
%
barometer
mb
20260505140453 18 202 6.4 16.1 0.00 0.00 0.00 68 1010.8
20260505125023 17 237 9.7 19.3 0.00 0.03 0.00 69 1011.3
20260505123953 17 230 3.2 16.1 0.00 0.03 0.00 70 1011.3
20260505123523 17 213 3.2 16.1 0.00 0.05 0.00 71 1011.3
20260505122523 17 200 6.4 12.9 0.00 0.05 0.00 71 1011.2
20260505122023 16 217 0.0 9.7 0.00 0.05 0.00 72 1011.1
20260505121523 16 205 3.2 9.7 0.00 0.08 0.00 71 1011.1
20260505120953 16 221 0.0 6.4 0.00 0.10 0.00 72 1011.1
20260505120453 16 206 0.0 3.2 0.00 0.10 0.00 72 1011.1
20260505120023 16 206 3.2 3.2 0.00 0.10 0.00 73 1011.3
20260505115453 16 205 0.0 3.2 0.00 0.10 0.00 73 1011.3
20260505114953 16 206 0.0 3.2 0.00 0.10 0.00 73 1011.3
20260505114523 15 204 0.0 3.2 0.00 0.10 0.00 74 1011.3
20260505114022 15 204 0.0 3.2 0.00 0.10 0.00 74 1011.4
20260505113523 15 204 0.0 3.2 0.00 0.10 0.00 74 1011.4
20260505113022 15 204 3.2 3.2 0.00 0.10 0.00 74 1011.4
20260505112522 15 204 0.0 3.2 0.00 0.10 0.00 74 1011.5
20260505111522 15 204 3.2 3.2 0.00 0.10 0.00 73 1011.5
20260505110952 15 330 0.0 3.2 0.00 0.10 0.00 73 1011.4
20260505110522 16 331 0.0 6.4 0.00 0.10 0.00 72 1011.5
20260505102022 16 144 0.0 9.7 0.00 0.13 0.00 71 1010.7
20260505101522 16 240 0.0 16.1 0.00 0.13 0.00 70 1010.6
20260505101022 16 211 3.2 16.1 0.00 0.13 0.00 70 1010.4
20260505100522 16 214 6.4 19.3 0.00 0.15 0.00 70 1010.3
20260505095522 16 213 6.4 22.5 0.00 0.15 0.00 70 1010.1
20260505094522 16 229 3.2 16.1 0.00 0.15 0.00 70 1010.0
20260505094022 16 218 0.0 12.9 0.00 0.15 0.00 70 1009.9
20260505093522 16 244 0.0 16.1 0.00 0.15 0.00 70 1009.9
20260505093022 16 218 3.2 19.3 0.00 0.15 0.00 69 1009.9
20260505092022 16 199 6.4 19.3 0.00 0.18 0.00 69 1009.8
20260505091522 16 210 6.4 12.9 0.00 0.18 0.00 69 1009.8
20260505091021 16 183 6.4 19.3 0.00 0.20 0.00 69 1009.8
20260505090522 16 182 0.0 19.3 0.00 0.20 0.00 69 1009.7
20260505090022 16 182 9.7 16.1 0.00 0.20 0.00 69 1009.7
20260505085522 16 218 6.4 16.1 0.00 0.20 0.00 68 1009.7
20260505085021 16 240 0.0 12.9 0.00 0.20 0.00 68 1009.7
20260505084521 16 211 3.2 16.1 0.00 0.20 0.00 68 1009.7
20260505084021 16 218 0.0 16.1 0.00 0.20 0.00 67 1009.7
20260505083521 17 244 9.7 25.7 0.00 0.20 0.00 67 1009.6
20260505083021 17 204 0.0 25.7 0.00 0.20 0.00 67 1009.6
20260505082021 17 196 12.9 19.3 0.00 0.20 0.00 67 1009.5
20260505081451 17 218 0.0 19.3 0.00 0.20 0.00 67 1009.4
20260505081021 17 96 6.4 32.2 0.00 0.20 0.00 67 1009.2
20260505080521 17 243 0.0 32.2 0.00 0.20 0.00 66 1009.1
20260505075521 17 240 3.2 22.5 0.00 0.20 0.00 66 1009.1
20260505075021 17 226 3.2 22.5 0.00 0.20 0.00 66 1009.2
20260505074521 17 214 6.4 19.3 0.00 0.20 0.00 66 1009.2
20260505073521 17 141 9.7 35.4 0.00 0.20 0.00 65 1009.1
20260505073021 17 196 29.0 35.4 0.00 0.20 0.00 66 1009.1
20260505072521 17 218 6.4 29.0 0.00 0.20 0.00 67 1009.0
20260505071521 17 275 9.7 22.5 0.00 0.20 0.00 66 1009.1
20260505071021 17 223 6.4 25.7 0.00 0.20 0.00 66 1009.1
20260505070520 17 227 6.4 25.7 0.00 0.20 0.00 66 1009.1
20260505070020 17 203 9.7 25.7 0.00 0.20 0.00 67 1009.0
20260505065521 17 221 6.4 25.7 0.00 0.20 0.00 66 1009.1
20260505065020 17 199 16.1 25.7 0.00 0.20 0.00 66 1009.0
20260505064521 17 210 16.1 25.7 0.00 0.20 0.00 67 1008.9
20260505064020 17 202 16.1 25.7 0.00 0.20 0.00 67 1008.9
20260505063520 17 200 12.9 19.3 0.00 0.20 0.00 67 1009.0
20260505063021 17 204 6.4 19.3 0.00 0.20 0.00 67 1009.0
20260505062520 17 218 6.4 22.5 0.00 0.20 0.00 67 1009.0
20260505062020 17 220 3.2 22.5 0.00 0.20 0.00 67 1009.1
20260505061520 17 175 3.2 19.3 0.00 0.20 0.00 67 1009.2
20260505061020 17 207 3.2 16.1 0.00 0.20 0.00 67 1009.2
20260505060520 17 193 3.2 12.9 0.00 0.20 0.00 67 1009.2
20260505060020 17 202 6.4 16.1 0.00 0.20 0.00 67 1009.2
20260505055520 17 233 3.2 16.1 0.00 0.20 0.00 67 1009.2
20260505054520 17 252 6.4 16.1 0.00 0.20 0.00 66 1009.1
20260505053020 17 220 6.4 22.5 0.00 0.20 0.00 65 1009.1
20260505052020 17 220 9.7 25.7 0.00 0.20 0.00 65 1009.2
20260505051520 17 188 9.7 25.7 0.00 0.20 0.00 66 1009.3
20260505051020 17 226 16.1 25.7 0.00 0.20 0.00 66 1009.2
20260505050520 17 190 6.4 19.3 0.00 0.20 0.00 66 1009.2
20260505041020 17 207 3.2 9.7 0.00 0.20 0.00 68 1009.3
20260505040020 17 194 3.2 9.7 0.00 0.20 0.00 67 1009.3
20260505035520 17 207 6.4 9.7 0.00 0.20 0.20 68 1009.1
20260505035020 17 225 0.0 9.7 0.00 0.20 0.20 68 1009.1
20260505034519 17 204 6.4 9.7 0.00 0.20 0.20 68 1009.0
20260505034019 17 206 0.0 9.7 0.00 0.20 0.20 68 1009.0
20260505033520 17 193 3.2 9.7 0.00 0.20 0.20 69 1009.0
20260505032519 17 207 0.0 12.9 0.00 0.20 0.20 69 1009.0
20260505032019 17 209 3.2 12.9 0.00 0.20 0.20 69 1008.8
20260505031519 17 194 3.2 6.4 0.00 0.20 0.20 70 1008.8
20260505031019 17 200 3.2 6.4 0.00 0.20 0.20 70 1008.8
20260505030519 17 117 0.0 3.2 0.00 0.20 0.20 70 1008.8
20260505030019 17 100 0.0 6.4 0.00 0.20 0.20 70 1008.6
20260505025519 17 100 0.0 12.9 0.00 0.20 0.20 70 1008.4
20260505025019 17 219 0.0 12.9 0.00 0.20 0.20 70 1008.2
20260505024519 17 183 0.0 6.4 0.00 0.20 0.20 71 1008.2
20260505024019 16 207 0.0 6.4 0.00 0.20 0.20 72 1008.2
20260505023519 16 204 3.2 6.4 0.00 0.20 0.20 73 1008.1
20260505023019 16 268 0.0 0.0 0.00 0.20 0.20 73 1008.0
20260505022519 17 268 0.0 0.0 0.00 0.20 0.20 72 1007.9
20260505022019 17 268 0.0 3.2 0.00 0.20 0.20 71 1007.6
20260505021519 17 268 0.0 3.2 0.00 0.20 0.20 71 1007.6
20260505021019 17 268 0.0 3.2 0.00 0.20 0.20 71 1007.4
20260505020019 17 216 0.0 3.2 0.00 0.20 0.20 71 1007.2
20260505015519 17 216 0.0 3.2 0.00 0.20 0.20 71 1007.1
20260505015019 17 216 0.0 0.0 0.00 0.20 0.20 70 1007.2
20260505014519 17 216 0.0 0.0 0.00 0.20 0.20 69 1007.2
20260505014019 18 216 0.0 9.7 0.00 0.20 0.20 68 1007.1
20260505013519 18 216 0.0 9.7 0.00 0.20 0.20 68 1007.1
20260505012519 18 213 0.0 3.2 0.00 0.20 0.20 68 1007.1
20260505012019 18 213 0.0 3.2 0.00 0.20 0.20 67 1007.2
20260505011519 18 166 0.0 0.0 0.00 0.20 0.20 66 1007.3
20260505011019 19 166 0.0 0.0 0.00 0.20 0.20 65 1007.2
20260505010518 19 166 0.0 3.2 0.00 0.20 0.20 64 1007.2
20260505010019 20 166 0.0 3.2 0.00 0.20 0.20 63 1007.2
20260505005519 20 166 0.0 3.2 0.00 0.20 0.20 62 1007.2
20260505005018 21 209 0.0 9.7 0.00 0.20 0.20 61 1007.2
20260505003518 21 217 6.4 9.7 0.00 0.20 0.20 58 1007.2
20260505003018 21 259 0.0 12.9 0.00 0.20 0.20 57 1007.2
20260505002518 22 198 0.0 19.3 0.00 0.20 0.20 57 1007.1
20260505002018 22 226 6.4 19.3 0.00 0.20 0.20 57 1007.1
20260505001518 22 226 16.1 19.3 0.00 0.20 0.20 56 1007.1
20260505001019 22 210 3.2 19.3 0.00 0.20 0.20 56 1007.1
20260505000518 22 232 19.3 19.3 0.00 0.20 0.20 55 1007.2
20260505000018 22 206 0.0 22.5 0.00 0.20 0.20 55 1007.3
20260504235519 23 206 3.2 22.5 0.00 0.20 0.20 54 1007.3
20260504235019 23 218 9.7 22.5 0.00 0.20 0.20 53 1007.3
20260504234518 23 193 6.4 22.5 0.00 0.20 0.20 54 1007.4
20260504234018 23 179 3.2 19.3 0.00 0.20 0.20 54 1007.6
20260504233518 23 234 6.4 19.3 0.00 0.20 0.20 54 1007.8
20260504233018 23 185 6.4 19.3 0.00 0.20 0.20 54 1007.9
20260504232518 23 185 6.4 19.3 0.00 0.20 0.20 53 1008.0
20260504231018 24 208 9.7 22.5 0.00 0.20 0.20 51 1008.1
20260504230518 25 231 6.4 25.7 0.00 0.20 0.20 51 1008.2
20260504230018 25 199 19.3 51.5 0.00 0.20 0.20 51 1008.2
20260504225518 25 218 9.7 51.5 0.00 0.20 0.20 50 1008.3
20260504225018 25 175 22.5 32.2 0.00 0.20 0.20 50 1008.2
20260504224018 25 274 3.2 35.4 0.00 0.20 0.20 49 1008.2
20260504223518 25 185 22.5 32.2 0.00 0.20 0.20 50 1008.3
20260504223018 25 203 16.1 19.3 0.00 0.20 0.20 50 1008.4
20260504222518 25 214 19.3 35.4 0.00 0.20 0.20 50 1008.5
20260504222017 25 213 12.9 35.4 0.00 0.20 0.20 49 1008.5
20260504221518 25 224 9.7 38.6 0.00 0.20 0.20 50 1008.4
20260504221017 25 241 3.2 38.6 0.00 0.20 0.20 48 1008.5
20260504220518 25 203 6.4 29.0 0.00 0.20 0.20 48 1008.5
20260504220017 25 183 19.3 32.2 0.00 0.20 0.20 48 1008.7
20260504215517 25 130 12.9 32.2 0.00 0.20 0.20 47 1008.5
20260504215017 25 222 6.4 19.3 0.00 0.20 0.20 51 1008.6
20260504214518 25 208 3.2 22.5 0.00 0.20 0.20 49 1008.7
20260504214017 25 289 6.4 25.7 0.00 0.20 0.20 47 1008.7
20260504213518 25 318 9.7 38.6 0.00 0.20 0.20 46 1008.8
20260504213017 26 207 12.9 38.6 0.00 0.20 0.20 48 1008.7
20260504212517 26 133 16.1 41.8 0.00 0.20 0.20 47 1008.7
20260504212017 26 221 6.4 41.8 0.00 0.20 0.20 47 1008.7
20260504211517 26 204 22.5 32.2 0.00 0.20 0.20 46 1008.7
20260504211017 26 269 12.9 29.0 0.00 0.20 0.20 49 1008.7
20260504205517 26 218 6.4 32.2 0.00 0.20 0.20 48 1008.9
20260504205017 26 217 9.7 32.2 0.00 0.20 0.20 46 1008.7
20260504204017 26 342 6.4 25.7 0.00 0.20 0.20 49 1008.8
20260504203517 26 235 22.5 38.6 0.00 0.20 0.20 49 1008.8
20260504203017 26 208 3.2 38.6 0.00 0.20 0.20 50 1008.9
20260504202517 26 241 6.4 32.2 0.00 0.20 0.20 48 1008.9
20260504202017 26 229 12.9 29.0 0.00 0.20 0.20 48 1009.0
20260504201517 26 164 16.1 29.0 0.00 0.20 0.20 46 1009.1
20260504201017 26 278 9.7 22.5 0.00 0.20 0.20 49 1009.2
20260504200517 26 359 9.7 29.0 0.00 0.20 0.20 50 1009.1
20260504200017 26 325 12.9 41.8 0.00 0.20 0.20 50 1009.3
20260504195516 26 207 19.3 41.8 0.00 0.20 0.20 49 1009.5
20260504194517 26 280 6.4 32.2 0.00 0.20 0.20 51 1009.7
20260504194016 26 275 16.1 38.6 0.00 0.20 0.20 50 1009.6
20260504193516 26 207 12.9 38.6 0.00 0.20 0.20 51 1009.7
20260504193017 26 206 29.0 35.4 0.00 0.20 0.20 49 1009.9
20260504192516 26 278 9.7 35.4 0.00 0.20 0.20 51 1009.9
20260504192016 26 200 6.4 35.4 0.00 0.20 0.20 54 1010.1
20260504191516 25 227 9.7 35.4 0.00 0.20 0.20 52 1010.1
20260504191016 25 287 3.2 29.0 0.00 0.20 0.20 53 1010.2
20260504190516 25 193 9.7 29.0 0.00 0.20 0.20 55 1010.3
20260504190016 25 208 12.9 19.3 0.00 0.20 0.20 52 1010.3
20260504185516 25 192 12.9 25.7 0.00 0.20 0.20 56 1010.4
20260504185016 25 197 19.3 25.7 0.00 0.20 0.20 54 1010.3
20260504184016 25 242 6.4 25.7 0.00 0.20 0.20 54 1010.4
20260504183516 25 235 12.9 25.7 0.00 0.20 0.20 52 1010.2
20260504183016 25 217 19.3 22.5 0.00 0.20 0.20 56 1010.3
20260504182516 25 131 6.4 25.7 0.00 0.20 0.20 54 1010.3
20260504182016 25 273 9.7 25.7 0.00 0.20 0.20 55 1010.2
20260504181516 25 297 12.9 22.5 0.00 0.20 0.20 55 1010.3
20260504181016 25 233 22.5 25.7 0.00 0.20 0.20 54 1010.3
20260504180016 25 303 9.7 29.0 0.00 0.20 0.20 55 1010.2
20260504175516 24 209 3.2 25.7 0.00 0.20 0.20 55 1010.2
20260504175016 24 109 0.0 25.7 0.00 0.20 0.20 56 1010.3
20260504174515 23 234 6.4 25.7 0.00 0.20 0.20 57 1010.3
20260504174016 23 254 6.4 25.7 0.00 0.20 0.20 56 1010.3
20260504173516 23 238 6.4 25.7 0.00 0.20 0.20 57 1010.4
20260504173016 23 193 22.5 29.0 0.00 0.20 0.20 56 1010.5
20260504172516 23 273 9.7 29.0 0.00 0.20 0.20 60 1010.5
20260504172016 23 226 9.7 22.5 0.00 0.20 0.20 57 1010.6
20260504171515 22 221 9.7 45.1 0.00 0.20 0.20 57 1010.6
20260504171016 22 200 6.4 45.1 0.00 0.20 0.20 56 1010.7
20260504170516 22 195 12.9 22.5 0.00 0.20 0.20 56 1010.8
20260504151015 15 216 12.9 25.7 0.00 0.20 0.20 76 1011.1
20260504150515 15 186 3.2 25.7 0.00 0.20 0.20 78 1011.3